WAT7775 RCTP-RJCC

Flight info

Callsign WAT7775
Flight time 2h 57m
Altitude 35000
Route MOLKA1A MOLKA M750 MOMPA Y451 HKC Y45 MARCO Y141 SAMON Y14 GOLDO Y19 MRE Y13 SIRAO Y139 NAVER
Aircraft B772/H-SDE2E3FGHIJ5LORVWXY/LB1D1

Departure

Time 2026-05-04 21:07
Airport Taiwan Taoyuan International Airport (RCTP)

Arrival

Time 2026-05-05 00:04
Airport New Chitose Airport (RJCC)
Time Latitude Longitude Altitude Speed Heading
2026-05-04 20:43 25.07279 121.23383 125 ft 0 kts 320°
2026-05-04 20:57 25.07273 121.23388 125 ft 2 kts 320°
2026-05-04 20:57 25.07262 121.23399 125 ft 2 kts 320°
2026-05-04 20:58 25.07250 121.23409 125 ft 2 kts 320°
2026-05-04 20:58 25.07240 121.23421 125 ft 2 kts 304°
2026-05-04 20:58 25.07233 121.23435 125 ft 2 kts 290°
2026-05-04 20:58 25.07229 121.23451 125 ft 2 kts 276°
2026-05-04 20:59 25.07229 121.23468 125 ft 2 kts 262°
2026-05-04 20:59 25.07232 121.23484 125 ft 2 kts 248°
2026-05-04 20:59 25.07239 121.23498 125 ft 2 kts 234°
2026-05-04 20:59 25.07244 121.23506 125 ft 1 kts 227°
2026-05-04 21:00 25.07245 121.23507 125 ft 0 kts 227°
2026-05-04 21:03 25.07237 121.23497 125 ft 7 kts 227°
2026-05-04 21:03 25.07190 121.23440 125 ft 11 kts 227°
2026-05-04 21:03 25.07135 121.23373 125 ft 13 kts 229°
2026-05-04 21:03 25.07075 121.23296 125 ft 14 kts 230°
2026-05-04 21:04 25.07002 121.23200 125 ft 22 kts 229°
2026-05-04 21:04 25.06891 121.23059 125 ft 25 kts 229°
2026-05-04 21:04 25.06775 121.22912 125 ft 25 kts 229°
2026-05-04 21:04 25.06659 121.22764 125 ft 26 kts 229°
2026-05-04 21:05 25.06540 121.22613 125 ft 26 kts 229°
2026-05-04 21:05 25.06419 121.22461 125 ft 27 kts 228°
2026-05-04 21:05 25.06283 121.22335 125 ft 20 kts 184°
2026-05-04 21:05 25.06182 121.22421 125 ft 18 kts 104°
2026-05-04 21:06 25.06222 121.22523 125 ft 0 kts 48°
2026-05-04 21:06 25.06224 121.22526 125 ft 6 kts 48°
2026-05-04 21:06 25.06401 121.22759 125 ft 77 kts 51°
2026-05-04 21:06 25.06908 121.23398 126 ft 142 kts 47°
2026-05-04 21:07 25.07660 121.24339 351 ft 173 kts 50°
2026-05-04 21:07 25.08433 121.25297 1045 ft 174 kts 52°
2026-05-04 21:07 25.09210 121.26330 1592 ft 181 kts 52°
2026-05-04 21:07 25.10051 121.27455 1844 ft 201 kts 52°
2026-05-04 21:08 25.10984 121.28703 2160 ft 220 kts 51°
2026-05-04 21:08 25.12029 121.30024 2486 ft 239 kts 46°
2026-05-04 21:08 25.13228 121.31372 2928 ft 252 kts 45°
2026-05-04 21:08 25.14452 121.32758 3609 ft 255 kts 45°
2026-05-04 21:09 25.15693 121.34179 4192 ft 262 kts 46°
2026-05-04 21:09 25.16969 121.35647 4720 ft 270 kts 47°
2026-05-04 21:09 25.18279 121.37154 5274 ft 277 kts 47°
2026-05-04 21:09 25.19625 121.38705 5867 ft 282 kts 47°
2026-05-04 21:10 25.20984 121.40270 6442 ft 287 kts 47°
2026-05-04 21:10 25.22374 121.41872 7017 ft 292 kts 47°
2026-05-04 21:10 25.23784 121.43497 7596 ft 297 kts 46°
2026-05-04 21:10 25.25218 121.45151 8171 ft 301 kts 46°
2026-05-04 21:11 25.26670 121.46825 8751 ft 305 kts 45°
2026-05-04 21:11 25.28144 121.48527 9297 ft 310 kts 45°
2026-05-04 21:11 25.29409 121.50482 9848 ft 315 kts 60°
2026-05-04 21:11 25.30464 121.52614 10334 ft 323 kts 59°
2026-05-04 21:12 25.31610 121.54809 10586 ft 339 kts 58°
2026-05-04 21:12 25.32858 121.57079 10857 ft 354 kts 57°
2026-05-04 21:12 25.34178 121.59438 11093 ft 370 kts 56°
2026-05-04 21:12 25.35560 121.61899 11348 ft 385 kts 56°
2026-05-04 21:13 25.36994 121.64455 11559 ft 400 kts 56°
2026-05-04 21:13 25.38490 121.67120 11881 ft 412 kts 57°
2026-05-04 21:13 25.40006 121.69825 12355 ft 418 kts 56°
2026-05-04 21:13 25.41538 121.72560 12918 ft 422 kts 56°
2026-05-04 21:14 25.43083 121.75319 13516 ft 425 kts 56°
2026-05-04 21:14 25.44640 121.78102 14045 ft 430 kts 56°
2026-05-04 21:14 25.46213 121.80914 14618 ft 434 kts 56°
2026-05-04 21:14 25.47803 121.83756 15212 ft 438 kts 56°
2026-05-04 21:15 25.49416 121.86643 15779 ft 443 kts 56°
2026-05-04 21:15 25.51036 121.89544 16323 ft 447 kts 57°
2026-05-04 21:15 25.52671 121.92475 16950 ft 450 kts 57°
2026-05-04 21:15 25.54313 121.95419 17513 ft 454 kts 56°
2026-05-04 21:16 25.55972 121.98396 18076 ft 458 kts 57°
2026-05-04 21:16 25.57649 122.01406 18563 ft 464 kts 57°
2026-05-04 21:16 25.59350 122.04462 19035 ft 470 kts 56°
2026-05-04 21:16 25.61074 122.07562 19607 ft 473 kts 56°
2026-05-04 21:17 25.62798 122.10664 20129 ft 477 kts 56°
2026-05-04 21:17 25.64544 122.13805 20579 ft 483 kts 56°
2026-05-04 21:17 25.66308 122.16984 21040 ft 489 kts 56°
2026-05-04 21:17 25.68087 122.20190 21555 ft 492 kts 56°
2026-05-04 21:18 25.69876 122.23418 22107 ft 495 kts 56°
2026-05-04 21:18 25.71673 122.26662 22637 ft 497 kts 56°
2026-05-04 21:18 25.73493 122.29951 23154 ft 500 kts 56°
2026-05-04 21:18 25.75311 122.33237 23609 ft 504 kts 56°
2026-05-04 21:19 25.77146 122.36556 24059 ft 509 kts 56°
2026-05-04 21:19 25.78992 122.39898 24502 ft 513 kts 56°
2026-05-04 21:19 25.80859 122.43281 24923 ft 517 kts 56°
2026-05-04 21:19 25.82734 122.46680 25383 ft 520 kts 56°
2026-05-04 21:20 25.84624 122.50108 25805 ft 524 kts 56°
2026-05-04 21:20 25.86537 122.53582 26223 ft 528 kts 56°
2026-05-04 21:20 25.88450 122.57058 26628 ft 531 kts 57°
2026-05-04 21:20 25.90377 122.60561 26972 ft 536 kts 57°
2026-05-04 21:21 25.92321 122.64098 27341 ft 540 kts 57°
2026-05-04 21:21 25.94278 122.67663 27709 ft 544 kts 57°
2026-05-04 21:21 25.96246 122.71251 27969 ft 549 kts 57°
2026-05-04 21:21 25.98234 122.74876 28256 ft 553 kts 57°
2026-05-04 21:22 26.00248 122.78553 28582 ft 557 kts 58°
2026-05-04 21:22 26.02256 122.82222 28952 ft 559 kts 58°
2026-05-04 21:22 26.04273 122.85911 29299 ft 562 kts 58°
2026-05-04 21:22 26.06300 122.89620 29631 ft 565 kts 58°
2026-05-04 21:23 26.08336 122.93350 30031 ft 566 kts 57°
2026-05-04 21:23 26.10368 122.97075 30516 ft 565 kts 57°
2026-05-04 21:23 26.12418 123.00838 30987 ft 565 kts 57°
2026-05-04 21:23 26.14478 123.04620 31437 ft 564 kts 57°
2026-05-04 21:24 26.16521 123.08374 31816 ft 565 kts 57°
2026-05-04 21:24 26.18549 123.12104 32187 ft 566 kts 57°
2026-05-04 21:24 26.20582 123.15845 32584 ft 566 kts 57°
2026-05-04 21:24 26.22606 123.19574 33072 ft 564 kts 56°
2026-05-04 21:25 26.24622 123.23291 33551 ft 562 kts 56°
2026-05-04 21:25 26.26632 123.27001 33988 ft 561 kts 56°
2026-05-04 21:25 26.28648 123.30723 34468 ft 558 kts 56°
2026-05-04 21:25 26.30636 123.34399 34955 ft 556 kts 56°
2026-05-04 21:26 26.32629 123.38085 35084 ft 560 kts 56°
2026-05-04 21:26 26.34643 123.41809 35095 ft 566 kts 56°
2026-05-04 21:26 26.38726 123.49374 35100 ft 578 kts 56°
2026-05-04 21:27 26.42901 123.57124 35100 ft 588 kts 56°
2026-05-04 21:27 26.47106 123.64946 35106 ft 590 kts 56°
2026-05-04 21:28 26.51302 123.72767 35088 ft 590 kts 56°
2026-05-04 21:28 26.55502 123.80604 35091 ft 591 kts 57°
2026-05-04 21:29 26.59711 123.88476 35092 ft 591 kts 57°
2026-05-04 21:29 26.63907 123.96334 35094 ft 590 kts 56°
2026-05-04 21:30 26.68602 124.03754 35106 ft 587 kts 46°
2026-05-04 21:30 26.73840 124.10743 35102 ft 586 kts 46°
2026-05-04 21:31 26.81674 124.21208 35110 ft 588 kts 46°
2026-05-04 21:32 26.86893 124.28208 35131 ft 590 kts 46°
2026-05-04 21:32 26.89512 124.31726 35368 ft 589 kts 46°
2026-05-04 21:32 26.92130 124.35248 35788 ft 585 kts 46°
2026-05-04 21:32 26.94713 124.38727 36217 ft 581 kts 46°
2026-05-04 21:33 26.97281 124.42189 36560 ft 579 kts 46°
2026-05-04 21:33 26.99849 124.45650 36728 ft 581 kts 46°
2026-05-04 21:33 27.02424 124.49123 36934 ft 581 kts 45°
2026-05-04 21:33 27.04994 124.52591 37114 ft 581 kts 45°
2026-05-04 21:34 27.07569 124.56070 37123 ft 582 kts 46°
2026-05-04 21:34 27.12749 124.63076 37126 ft 584 kts 46°
2026-05-04 21:35 27.17914 124.70076 37104 ft 584 kts 46°
2026-05-04 21:35 27.23075 124.77081 37104 ft 584 kts 46°
2026-05-04 21:36 27.28247 124.84113 37112 ft 585 kts 46°
2026-05-04 21:36 27.33416 124.91151 37112 ft 586 kts 46°
2026-05-04 21:37 27.38584 124.98199 37115 ft 587 kts 46°
2026-05-04 21:37 27.43767 125.05226 37116 ft 585 kts 45°
2026-05-04 21:38 27.48980 125.12253 37118 ft 585 kts 45°
2026-05-04 21:38 27.54181 125.19278 37125 ft 587 kts 45°
2026-05-04 21:39 27.59379 125.26312 37123 ft 585 kts 46°
2026-05-04 21:39 27.64599 125.33390 37129 ft 588 kts 46°
2026-05-04 21:40 27.69794 125.40445 37131 ft 587 kts 46°
2026-05-04 21:40 27.74997 125.47523 37135 ft 588 kts 45°
2026-05-04 21:41 27.80190 125.54601 37137 ft 587 kts 45°
2026-05-04 21:41 27.85390 125.61700 37138 ft 586 kts 45°
2026-05-04 21:42 27.90581 125.68796 37123 ft 590 kts 46°
2026-05-04 21:42 27.95782 125.75919 37123 ft 589 kts 46°
2026-05-04 21:43 28.01005 125.83085 37128 ft 590 kts 46°
2026-05-04 21:43 28.06190 125.90211 37136 ft 589 kts 46°
2026-05-04 21:44 28.11387 125.97364 37131 ft 592 kts 46°
2026-05-04 21:44 28.16579 126.04524 37134 ft 589 kts 46°
2026-05-04 21:45 28.21773 126.11699 37143 ft 590 kts 46°
2026-05-04 21:45 28.26957 126.18869 37141 ft 591 kts 46°
2026-05-04 21:46 28.32144 126.26058 37152 ft 590 kts 46°
2026-05-04 21:46 28.37333 126.33263 37165 ft 590 kts 46°
2026-05-04 21:47 28.42509 126.40460 37162 ft 589 kts 46°
2026-05-04 21:47 28.47677 126.47659 37162 ft 590 kts 46°
2026-05-04 21:48 28.52844 126.54869 37170 ft 591 kts 46°
2026-05-04 21:48 28.58033 126.62122 37168 ft 591 kts 46°
2026-05-04 21:49 28.63209 126.69368 37155 ft 594 kts 47°
2026-05-04 21:49 28.68385 126.76630 37151 ft 592 kts 46°
2026-05-04 21:50 28.73573 126.83918 37144 ft 593 kts 47°
2026-05-04 21:50 28.78747 126.91201 37156 ft 593 kts 47°
2026-05-04 21:51 28.83908 126.98478 37157 ft 592 kts 47°
2026-05-04 21:51 28.89077 127.05777 37156 ft 595 kts 46°
2026-05-04 21:52 28.94263 127.13117 37166 ft 594 kts 46°
2026-05-04 21:52 28.99434 127.20446 37161 ft 596 kts 47°
2026-05-04 21:53 29.04619 127.27808 37164 ft 596 kts 46°
2026-05-04 21:53 29.09801 127.35180 37168 ft 595 kts 47°
2026-05-04 21:54 29.14966 127.42540 37165 ft 595 kts 46°
2026-05-04 21:54 29.20126 127.49906 37167 ft 597 kts 47°
2026-05-04 21:55 29.25293 127.57297 37172 ft 595 kts 46°
2026-05-04 21:55 29.30466 127.64707 37174 ft 595 kts 46°
2026-05-04 21:56 29.35608 127.72089 37152 ft 596 kts 47°
2026-05-04 21:56 29.40756 127.79490 37156 ft 596 kts 47°
2026-05-04 21:57 29.45928 127.86939 37160 ft 598 kts 47°
2026-05-04 21:57 29.51066 127.94356 37166 ft 596 kts 47°
2026-05-04 21:58 29.56212 128.01790 37169 ft 598 kts 47°
2026-05-04 21:58 29.61363 128.09241 37172 ft 598 kts 47°
2026-05-04 21:59 29.66531 128.16732 37171 ft 598 kts 47°
2026-05-04 21:59 29.71681 128.24211 37175 ft 598 kts 47°
2026-05-04 22:00 29.76821 128.31688 37184 ft 600 kts 47°
2026-05-04 22:00 29.81989 128.39220 37180 ft 599 kts 47°
2026-05-04 22:01 29.87127 128.46722 37178 ft 599 kts 47°
2026-05-04 22:01 29.92265 128.54238 37178 ft 600 kts 47°
2026-05-04 22:02 29.97405 128.61772 37177 ft 599 kts 47°
2026-05-04 22:02 30.02554 128.69332 37152 ft 601 kts 48°
2026-05-04 22:03 30.07684 128.76880 37154 ft 600 kts 47°
2026-05-04 22:03 30.12813 128.84438 37149 ft 600 kts 47°
2026-05-04 22:04 30.17953 128.92029 37151 ft 601 kts 47°
2026-05-04 22:04 30.23074 128.99607 37151 ft 600 kts 47°
2026-05-04 22:05 30.28198 129.07201 37161 ft 602 kts 48°
2026-05-04 22:05 30.33320 129.14809 37165 ft 601 kts 48°
2026-05-04 22:06 30.38461 129.22458 37159 ft 603 kts 47°
2026-05-04 22:06 30.43583 129.30095 37169 ft 602 kts 48°
2026-05-04 22:07 30.48695 129.37730 37168 ft 603 kts 48°
2026-05-04 22:07 30.53821 129.45404 37167 ft 601 kts 47°
2026-05-04 22:08 30.58932 129.53067 37166 ft 604 kts 48°
2026-05-04 22:08 30.64042 129.60744 37173 ft 604 kts 48°
2026-05-04 22:09 30.69153 129.68438 37152 ft 603 kts 48°
2026-05-04 22:09 30.74259 129.76140 37151 ft 603 kts 49°
2026-05-04 22:10 30.79352 129.83837 37149 ft 602 kts 48°
2026-05-04 22:10 30.84748 129.91172 37152 ft 595 kts 37°
2026-05-04 22:11 30.91265 129.96901 37162 ft 584 kts 26°
2026-05-04 22:11 30.98021 130.02127 37157 ft 585 kts 26°
2026-05-04 22:12 31.04760 130.07351 37161 ft 584 kts 26°
2026-05-04 22:12 31.11506 130.12593 37145 ft 584 kts 26°
2026-05-04 22:13 31.18279 130.17870 37147 ft 586 kts 26°
2026-05-04 22:13 31.25017 130.23134 37151 ft 584 kts 26°
2026-05-04 22:14 31.31754 130.28404 37157 ft 584 kts 26°
2026-05-04 22:14 31.38516 130.33705 37157 ft 585 kts 26°
2026-05-04 22:15 31.45247 130.38992 37163 ft 586 kts 26°
2026-05-04 22:15 31.51993 130.44299 37172 ft 586 kts 26°
2026-05-04 22:16 31.58744 130.49620 37175 ft 585 kts 26°
2026-05-04 22:16 31.65498 130.54954 37178 ft 586 kts 26°
2026-05-04 22:17 31.72264 130.60242 37181 ft 583 kts 24°
2026-05-04 22:17 31.79148 130.65223 37188 ft 584 kts 24°
2026-05-04 22:18 31.86048 130.70219 37173 ft 583 kts 24°
2026-05-04 22:18 31.92931 130.75222 37165 ft 584 kts 24°
2026-05-04 22:19 31.99818 130.80247 37187 ft 584 kts 24°
2026-05-04 22:19 32.06700 130.85281 37196 ft 584 kts 24°
2026-05-04 22:20 32.13601 130.90341 37188 ft 582 kts 24°
2026-05-04 22:20 32.20467 130.95297 37187 ft 581 kts 24°
2026-05-04 22:21 32.27341 131.00253 37188 ft 580 kts 23°
2026-05-04 22:21 32.34222 131.05228 37190 ft 580 kts 23°
2026-05-04 22:22 32.41090 131.10202 37187 ft 582 kts 23°
2026-05-04 22:22 32.47921 131.15248 37185 ft 580 kts 24°
2026-05-04 22:23 32.54735 131.20320 37184 ft 581 kts 24°
2026-05-04 22:23 32.61576 131.25419 37186 ft 580 kts 24°
2026-05-04 22:24 32.68396 131.30509 37182 ft 582 kts 25°
2026-05-04 22:24 32.75211 131.35608 37188 ft 580 kts 24°
2026-05-04 22:25 32.82057 131.40734 37188 ft 582 kts 24°
2026-05-04 22:25 32.88876 131.45770 37195 ft 579 kts 24°
2026-05-04 22:26 32.95717 131.50814 37189 ft 580 kts 24°
2026-05-04 22:26 33.02523 131.55846 37193 ft 578 kts 24°
2026-05-04 22:27 33.09359 131.60910 37196 ft 578 kts 24°
2026-05-04 22:27 33.16176 131.65970 37179 ft 579 kts 25°
2026-05-04 22:28 33.23070 131.70813 37167 ft 569 kts 17°
2026-05-04 22:28 33.30301 131.74588 37172 ft 567 kts 14°
2026-05-04 22:29 33.37524 131.78285 37178 ft 566 kts 14°
2026-05-04 22:29 33.44733 131.81986 37181 ft 565 kts 15°
2026-05-04 22:30 33.51907 131.85678 37183 ft 564 kts 15°
2026-05-04 22:30 33.59118 131.89398 37186 ft 562 kts 15°
2026-05-04 22:31 33.66280 131.93098 37189 ft 563 kts 15°
2026-05-04 22:31 33.73437 131.96806 37192 ft 561 kts 15°
2026-05-04 22:31 33.77011 131.98659 37056 ft 562 kts 15°
2026-05-04 22:32 33.80611 132.00524 37198 ft 561 kts 15°
2026-05-04 22:32 33.87788 132.04236 37203 ft 563 kts 15°
2026-05-04 22:33 33.94977 132.07966 37215 ft 563 kts 15°
2026-05-04 22:33 34.02143 132.11699 37211 ft 562 kts 15°
2026-05-04 22:34 34.09077 132.16161 37213 ft 574 kts 30°
2026-05-04 22:34 34.15251 132.22355 37211 ft 581 kts 36°
2026-05-04 22:35 34.21296 132.28750 37213 ft 579 kts 36°
2026-05-04 22:35 34.27363 132.35172 37206 ft 581 kts 36°
2026-05-04 22:36 34.33411 132.41583 37214 ft 579 kts 36°
2026-05-04 22:36 34.39459 132.47999 37208 ft 581 kts 36°
2026-05-04 22:37 34.45494 132.54412 37202 ft 577 kts 36°
2026-05-04 22:37 34.51528 132.60835 37199 ft 578 kts 36°
2026-05-04 22:38 34.57557 132.67265 37182 ft 581 kts 36°
2026-05-04 22:38 34.63584 132.73706 37176 ft 578 kts 37°
2026-05-04 22:39 34.69621 132.80170 37187 ft 579 kts 36°
2026-05-04 22:39 34.75616 132.86604 37198 ft 578 kts 36°
2026-05-04 22:40 34.81603 132.93040 37196 ft 576 kts 36°
2026-05-04 22:40 34.87581 132.99480 37192 ft 576 kts 36°
2026-05-04 22:41 34.93570 133.05942 37190 ft 576 kts 37°
2026-05-04 22:41 34.99555 133.12409 37182 ft 576 kts 36°
2026-05-04 22:42 35.05513 133.18863 37192 ft 576 kts 36°
2026-05-04 22:42 35.11491 133.25350 37178 ft 574 kts 37°
2026-05-04 22:43 35.17443 133.31822 37186 ft 576 kts 37°
2026-05-04 22:43 35.23385 133.38297 37185 ft 575 kts 36°
2026-05-04 22:44 35.29334 133.44792 37193 ft 577 kts 37°
2026-05-04 22:44 35.35314 133.51336 37186 ft 574 kts 37°
2026-05-04 22:45 35.41227 133.57821 37193 ft 574 kts 37°
2026-05-04 22:45 35.50127 133.67603 37191 ft 575 kts 37°
2026-05-04 22:46 35.56084 133.74168 37181 ft 575 kts 37°
2026-05-04 22:46 35.62018 133.80720 37194 ft 576 kts 37°
2026-05-04 22:47 35.67953 133.87289 37190 ft 576 kts 37°
2026-05-04 22:47 35.73885 133.93869 37181 ft 574 kts 37°
2026-05-04 22:48 35.79792 134.00433 37182 ft 574 kts 37°
2026-05-04 22:48 35.85682 134.06994 37188 ft 573 kts 37°
2026-05-04 22:49 35.91588 134.13583 37191 ft 575 kts 37°
2026-05-04 22:49 35.97493 134.20188 37186 ft 572 kts 37°
2026-05-04 22:50 36.03380 134.26785 37187 ft 575 kts 37°
2026-05-04 22:50 36.09268 134.33398 37185 ft 574 kts 37°
2026-05-04 22:51 36.15159 134.40029 37182 ft 572 kts 37°
2026-05-04 22:51 36.21027 134.46649 37192 ft 573 kts 38°
2026-05-04 22:52 36.26131 134.54243 37195 ft 582 kts 54°
2026-05-04 22:52 36.30383 134.62723 37192 ft 584 kts 55°
2026-05-04 22:53 36.34624 134.71319 37172 ft 585 kts 56°
2026-05-04 22:53 36.38841 134.79897 37183 ft 585 kts 56°
2026-05-04 22:54 36.43045 134.88478 37183 ft 585 kts 56°
2026-05-04 22:54 36.47258 134.97101 37184 ft 586 kts 56°
2026-05-04 22:55 36.51453 135.05709 37190 ft 586 kts 56°
2026-05-04 22:55 36.55648 135.14342 37191 ft 587 kts 56°
2026-05-04 22:56 36.59833 135.22976 37192 ft 585 kts 56°
2026-05-04 22:56 36.64033 135.31664 37198 ft 587 kts 56°
2026-05-04 22:57 36.68216 135.40340 37194 ft 587 kts 56°
2026-05-04 22:57 36.72386 135.49011 37194 ft 585 kts 56°
2026-05-04 22:58 36.76566 135.57725 37203 ft 587 kts 56°
2026-05-04 22:58 36.80727 135.66423 37200 ft 588 kts 56°
2026-05-04 22:59 36.84892 135.75149 37193 ft 589 kts 56°
2026-05-04 22:59 36.89051 135.83889 37200 ft 588 kts 57°
2026-05-04 23:00 36.93216 135.92665 37197 ft 587 kts 56°
2026-05-04 23:00 36.97358 136.01413 37198 ft 588 kts 57°
2026-05-04 23:01 37.01495 136.10176 37198 ft 587 kts 57°
2026-05-04 23:01 37.05630 136.18958 37198 ft 587 kts 56°
2026-05-04 23:02 37.09750 136.27730 37204 ft 587 kts 57°
2026-05-04 23:02 37.13871 136.36527 37197 ft 589 kts 57°
2026-05-04 23:03 37.17979 136.45322 37203 ft 587 kts 56°
2026-05-04 23:03 37.22095 136.54156 37191 ft 588 kts 57°
2026-05-04 23:04 37.26193 136.62975 37306 ft 587 kts 56°
2026-05-04 23:04 37.28243 136.67397 37199 ft 587 kts 57°
2026-05-04 23:04 37.30281 136.71798 37176 ft 585 kts 57°
2026-05-04 23:05 37.34370 136.80643 37168 ft 586 kts 57°
2026-05-04 23:05 37.38437 136.89467 37173 ft 586 kts 57°
2026-05-04 23:06 37.42499 136.98304 37172 ft 587 kts 57°
2026-05-04 23:06 37.46563 137.07169 37170 ft 589 kts 57°
2026-05-04 23:07 37.50644 137.16094 37170 ft 588 kts 57°
2026-05-04 23:07 37.54687 137.24963 37163 ft 587 kts 57°
2026-05-04 23:08 37.58734 137.33862 37175 ft 588 kts 57°
2026-05-04 23:08 37.62786 137.42798 37177 ft 587 kts 57°
2026-05-04 23:09 37.66821 137.51722 37180 ft 587 kts 57°
2026-05-04 23:09 37.70852 137.60659 37183 ft 589 kts 56°
2026-05-04 23:10 37.74876 137.69607 37169 ft 589 kts 57°
2026-05-04 23:10 37.78900 137.78581 37163 ft 586 kts 57°
2026-05-04 23:11 37.82904 137.87532 37172 ft 589 kts 57°
2026-05-04 23:11 37.86913 137.96522 37174 ft 590 kts 57°
2026-05-04 23:12 37.90926 138.05545 37172 ft 587 kts 57°
2026-05-04 23:12 37.94913 138.14535 37173 ft 590 kts 58°
2026-05-04 23:13 37.98907 138.23565 37182 ft 591 kts 58°
2026-05-04 23:13 38.02889 138.32584 37163 ft 587 kts 56°
2026-05-04 23:14 38.05144 138.36888 37046 ft 583 kts 47°
2026-05-04 23:14 38.07782 138.40714 37160 ft 577 kts 39°
2026-05-04 23:14 38.13968 138.46920 37160 ft 565 kts 26°
2026-05-04 23:15 38.20489 138.52323 37160 ft 561 kts 25°
2026-05-04 23:15 38.27035 138.57721 37166 ft 562 kts 25°
2026-05-04 23:16 38.33554 138.63100 37167 ft 558 kts 26°
2026-05-04 23:16 38.40064 138.68475 37252 ft 561 kts 26°
2026-05-04 23:17 38.43328 138.71173 37039 ft 562 kts 26°
2026-05-04 23:17 38.46581 138.73868 37130 ft 558 kts 26°
2026-05-04 23:17 38.53101 138.79271 37155 ft 559 kts 26°
2026-05-04 23:18 38.59587 138.84659 37133 ft 558 kts 26°
2026-05-04 23:18 38.66068 138.90053 37139 ft 557 kts 26°
2026-05-04 23:19 38.72556 138.95464 37131 ft 556 kts 27°
2026-05-04 23:19 38.78982 139.00837 37139 ft 552 kts 26°
2026-05-04 23:20 38.85406 139.06216 37139 ft 554 kts 26°
2026-05-04 23:20 38.91817 139.11598 37138 ft 555 kts 26°
2026-05-04 23:21 38.98276 139.17031 37132 ft 555 kts 27°
2026-05-04 23:21 39.04685 139.22437 37131 ft 552 kts 27°
2026-05-04 23:22 39.11082 139.27842 37129 ft 552 kts 27°
2026-05-04 23:22 39.17512 139.33287 37127 ft 554 kts 27°
2026-05-04 23:23 39.23887 139.38700 37127 ft 550 kts 27°
2026-05-04 23:23 39.30269 139.44127 37124 ft 552 kts 27°
2026-05-04 23:24 39.36635 139.49556 37125 ft 550 kts 27°
2026-05-04 23:24 39.43026 139.55016 37121 ft 551 kts 27°
2026-05-04 23:25 39.49403 139.60476 37122 ft 552 kts 27°
2026-05-04 23:25 39.55766 139.65938 37118 ft 550 kts 28°
2026-05-04 23:26 39.62150 139.71429 37100 ft 550 kts 28°
2026-05-04 23:26 39.68474 139.76883 37108 ft 549 kts 28°
2026-05-04 23:27 39.74808 139.82355 37110 ft 550 kts 28°
2026-05-04 23:27 39.81169 139.87863 37089 ft 552 kts 28°
2026-05-04 23:28 39.87531 139.93438 37096 ft 552 kts 29°
2026-05-04 23:28 39.93867 139.99018 37107 ft 553 kts 29°
2026-05-04 23:29 40.00188 140.04595 37104 ft 550 kts 29°
2026-05-04 23:29 40.06532 140.10202 37106 ft 553 kts 29°
2026-05-04 23:30 40.12828 140.15782 37098 ft 549 kts 29°
2026-05-04 23:30 40.19117 140.21367 37091 ft 545 kts 28°
2026-05-04 23:31 40.25379 140.26939 37104 ft 549 kts 29°
2026-05-04 23:31 40.31693 140.32569 37098 ft 551 kts 29°
2026-05-04 23:32 40.37977 140.38187 37079 ft 550 kts 29°
2026-05-04 23:32 40.44262 140.43819 37068 ft 549 kts 29°
2026-05-04 23:33 40.50538 140.49457 37055 ft 547 kts 29°
2026-05-04 23:33 40.56772 140.55069 37063 ft 546 kts 29°
2026-05-04 23:34 40.63012 140.60697 37062 ft 547 kts 29°
2026-05-04 23:34 40.69269 140.66356 37052 ft 548 kts 29°
2026-05-04 23:35 40.75776 140.71406 37046 ft 537 kts 17°
2026-05-04 23:35 40.82691 140.74868 37054 ft 534 kts 14°
2026-05-04 23:36 40.89629 140.78249 37044 ft 534 kts 14°
2026-05-04 23:36 40.96584 140.81675 37048 ft 531 kts 15°
2026-05-04 23:37 41.03452 140.85075 37035 ft 530 kts 15°
2026-05-04 23:37 41.10338 140.88492 37028 ft 530 kts 15°
2026-05-04 23:38 41.17221 140.91915 37034 ft 532 kts 15°
2026-05-04 23:38 41.24118 140.95356 37033 ft 530 kts 15°
2026-05-04 23:39 41.31024 140.98807 37016 ft 532 kts 15°
2026-05-04 23:39 41.37931 141.02211 37021 ft 532 kts 15°
2026-05-04 23:40 41.44854 141.05616 37019 ft 527 kts 15°
2026-05-04 23:40 41.48237 141.07287 37022 ft 513 kts 15°
2026-05-04 23:40 41.51510 141.08908 36962 ft 496 kts 15°
2026-05-04 23:41 41.54703 141.10487 36533 ft 489 kts 15°
2026-05-04 23:41 41.57875 141.12054 35829 ft 490 kts 15°
2026-05-04 23:41 41.61058 141.13627 34997 ft 492 kts 15°
2026-05-04 23:41 41.64250 141.15208 34301 ft 491 kts 15°
2026-05-04 23:42 41.67466 141.16801 33283 ft 498 kts 15°
2026-05-04 23:42 41.70708 141.18417 32426 ft 504 kts 15°
2026-05-04 23:42 41.73947 141.20056 31974 ft 495 kts 15°
2026-05-04 23:42 41.77102 141.21659 31812 ft 479 kts 15°
2026-05-04 23:43 41.80163 141.23214 31590 ft 468 kts 15°
2026-05-04 23:43 41.83175 141.24743 31222 ft 462 kts 15°
2026-05-04 23:43 41.86156 141.26256 30821 ft 458 kts 15°
2026-05-04 23:43 41.89115 141.27759 30399 ft 451 kts 15°
2026-05-04 23:44 41.92012 141.29233 29913 ft 445 kts 15°
2026-05-04 23:44 41.94839 141.30831 29415 ft 443 kts 21°
2026-05-04 23:44 41.97439 141.33017 28891 ft 445 kts 31°
2026-05-04 23:44 41.99771 141.35720 28329 ft 444 kts 36°
2026-05-04 23:45 42.01999 141.38534 27790 ft 439 kts 37°
2026-05-04 23:45 42.04195 141.41334 27176 ft 435 kts 36°
2026-05-04 23:45 42.06381 141.44128 26586 ft 430 kts 37°
2026-05-04 23:45 42.08521 141.46871 26065 ft 424 kts 36°
2026-05-04 23:46 42.10631 141.49580 25493 ft 420 kts 36°
2026-05-04 23:46 42.12789 141.52135 24933 ft 409 kts 29°
2026-05-04 23:46 42.15142 141.54139 24398 ft 398 kts 22°
2026-05-04 23:46 42.17531 141.55926 23897 ft 392 kts 22°
2026-05-04 23:47 42.19888 141.57678 23380 ft 386 kts 22°
2026-05-04 23:47 42.22242 141.59427 22725 ft 385 kts 22°
2026-05-04 23:47 42.24572 141.61160 22030 ft 385 kts 22°
2026-05-04 23:47 42.26900 141.62893 21386 ft 383 kts 22°
2026-05-04 23:48 42.29211 141.64617 20774 ft 381 kts 22°
2026-05-04 23:48 42.31509 141.66333 20153 ft 379 kts 22°
2026-05-04 23:48 42.33797 141.68041 19489 ft 378 kts 23°
2026-05-04 23:48 42.36085 141.69752 18828 ft 377 kts 23°
2026-05-04 23:49 42.38372 141.71464 18255 ft 374 kts 23°
2026-05-04 23:49 42.40626 141.73153 17676 ft 371 kts 23°
2026-05-04 23:49 42.42869 141.74835 17083 ft 370 kts 23°
2026-05-04 23:49 42.45101 141.76509 16477 ft 368 kts 23°
2026-05-04 23:50 42.47326 141.78180 15873 ft 367 kts 23°
2026-05-04 23:50 42.49537 141.79843 15301 ft 364 kts 24°
2026-05-04 23:50 42.51735 141.81497 14731 ft 362 kts 24°
2026-05-04 23:50 42.53934 141.83152 14140 ft 360 kts 24°
2026-05-04 23:51 42.56102 141.84786 13670 ft 355 kts 23°
2026-05-04 23:51 42.58306 141.85987 13504 ft 332 kts
2026-05-04 23:51 42.60520 141.86324 13312 ft 312 kts 357°
2026-05-04 23:51 42.62617 141.86326 12990 ft 293 kts 353°
2026-05-04 23:52 42.64583 141.86209 12762 ft 275 kts 352°
2026-05-04 23:52 42.66432 141.86053 12467 ft 263 kts 351°
2026-05-04 23:52 42.68244 141.85882 11957 ft 260 kts 351°
2026-05-04 23:52 42.70041 141.85707 11341 ft 261 kts 351°
2026-05-04 23:53 42.71841 141.85533 10769 ft 261 kts 351°
2026-05-04 23:53 42.73633 141.85362 10241 ft 259 kts 351°
2026-05-04 23:53 42.75421 141.85189 9664 ft 259 kts 351°
2026-05-04 23:53 42.77196 141.85019 9155 ft 256 kts 351°
2026-05-04 23:54 42.78955 141.84850 8658 ft 254 kts 351°
2026-05-04 23:54 42.80706 141.84682 8205 ft 249 kts 351°
2026-05-04 23:54 42.82392 141.84449 7882 ft 240 kts 344°
2026-05-04 23:54 42.84056 141.83947 7655 ft 251 kts 342°
2026-05-04 23:55 42.85751 141.83407 7339 ft 251 kts 342°
2026-05-04 23:55 42.87439 141.82872 7049 ft 249 kts 342°
2026-05-04 23:55 42.90772 141.81817 6501 ft 245 kts 342°
2026-05-04 23:56 42.92439 141.81289 6232 ft 245 kts 342°
2026-05-04 23:56 42.94097 141.80763 5974 ft 245 kts 343°
2026-05-04 23:56 42.95752 141.80238 5718 ft 245 kts 343°
2026-05-04 23:56 42.97406 141.79714 5456 ft 245 kts 343°
2026-05-04 23:57 42.99057 141.79190 5185 ft 244 kts 343°
2026-05-04 23:57 43.00596 141.78341 4907 ft 238 kts 324°
2026-05-04 23:57 43.01911 141.77001 4705 ft 234 kts 320°
2026-05-04 23:57 43.03101 141.75554 4647 ft 222 kts 306°
2026-05-04 23:58 43.03692 141.73694 4601 ft 215 kts 280°
2026-05-04 23:58 43.03562 141.71705 4517 ft 209 kts 253°
2026-05-04 23:58 43.02866 141.70029 4454 ft 198 kts 239°
2026-05-04 23:58 43.02082 141.68561 4401 ft 187 kts 236°
2026-05-04 23:59 43.01287 141.67195 4344 ft 183 kts 235°
2026-05-04 23:59 43.00462 141.65872 4281 ft 185 kts 227°
2026-05-04 23:59 42.99279 141.65112 4083 ft 196 kts 189°
2026-05-04 23:59 42.97931 141.65344 3823 ft 197 kts 171°
2026-05-05 00:00 42.96599 141.65701 3576 ft 195 kts 173°
2026-05-05 00:00 42.96152 141.65795 3492 ft 194 kts 174°
2026-05-05 00:00 42.93945 141.66180 3076 ft 191 kts 175°
2026-05-05 00:00 42.92634 141.66400 2829 ft 190 kts 175°
2026-05-05 00:01 42.91334 141.66624 2580 ft 188 kts 175°
2026-05-05 00:01 42.90040 141.66849 2332 ft 186 kts 175°
2026-05-05 00:01 42.88772 141.67071 2086 ft 184 kts 175°
2026-05-05 00:01 42.87534 141.67287 1841 ft 174 kts 174°
2026-05-05 00:02 42.86355 141.67494 1616 ft 169 kts 174°
2026-05-05 00:02 42.85214 141.67694 1391 ft 162 kts 174°
2026-05-05 00:02 42.84116 141.67878 1123 ft 159 kts 174°
2026-05-05 00:02 42.83049 141.68069 929 ft 151 kts 172°
2026-05-05 00:03 42.82032 141.68250 732 ft 144 kts 173°
2026-05-05 00:03 42.81040 141.68429 537 ft 143 kts 172°
2026-05-05 00:03 42.80095 141.68599 385 ft 134 kts 172°
2026-05-05 00:03 42.79160 141.68756 182 ft 138 kts 172°
2026-05-05 00:04 42.78241 141.68914 79 ft 122 kts 172°
2026-05-05 00:04 42.77544 141.69040 79 ft 79 kts 173°
2026-05-05 00:04 42.77110 141.69113 77 ft 56 kts 173°
2026-05-05 00:04 42.76806 141.69104 78 ft 38 kts 199°
2026-05-05 00:05 42.76703 141.69014 80 ft 11 kts 274°
2026-05-05 00:05 42.76776 141.68945 80 ft 15 kts 349°
2026-05-05 00:05 42.76885 141.68927 80 ft 17 kts 353°
2026-05-05 00:05 42.77010 141.68904 79 ft 19 kts 352°
2026-05-05 00:06 42.77149 141.68879 78 ft 21 kts 353°
2026-05-05 00:06 42.77300 141.68854 79 ft 22 kts 353°
2026-05-05 00:06 42.77451 141.68817 80 ft 21 kts 334°
2026-05-05 00:06 42.77537 141.68677 80 ft 20 kts 314°
2026-05-05 00:07 42.77677 141.68602 83 ft 23 kts 352°
2026-05-05 00:07 42.77825 141.68576 83 ft 20 kts 352°
2026-05-05 00:07 42.77953 141.68552 82 ft 17 kts 352°
2026-05-05 00:07 42.78063 141.68521 82 ft 15 kts 330°
2026-05-05 00:08 42.78075 141.68474 83 ft 4 kts 255°
2026-05-05 00:08 42.78061 141.68423 84 ft 7 kts 252°
2026-05-05 00:08 42.78056 141.68401 84 ft 0 kts 252°